CCSDS_OMM_VERS = 2.0 CREATION_DATE = ORIGINATOR = OBJECT_NAME = GPS BIIR-5 (PRN 22) OBJECT_ID = 2000-040A CENTER_NAME = EARTH REF_FRAME = TEME TIME_SYSTEM = UTC MEAN_ELEMENT_THEORY = SGP/SGP4 EPOCH = 2026-09-12T02:33:38.085120 MEAN_MOTION = 2.0055832 ECCENTRICITY = .01183391 INCLINATION = 54.8394 RA_OF_ASC_NODE = 211.7123 ARG_OF_PERICENTER = 303.7653 MEAN_ANOMALY = 98.8084 EPHEMERIS_TYPE = 0 CLASSIFICATION_TYPE = U NORAD_CAT_ID = 26407 ELEMENT_SET_NO = 999 REV_AT_EPOCH = 19169 BSTAR = 0 MEAN_MOTION_DOT = -.60000E-7 MEAN_MOTION_DDOT = 0 CCSDS_OMM_VERS = 2.0 CREATION_DATE = ORIGINATOR = OBJECT_NAME = GPS BIIR-8 (PRN 16) OBJECT_ID = 2003-005A CENTER_NAME = EARTH REF_FRAME = TEME TIME_SYSTEM = UTC MEAN_ELEMENT_THEORY = SGP/SGP4 EPOCH = 2026-09-11T14:28:20.052768 MEAN_MOTION = 2.0055587 ECCENTRICITY = .01502251 INCLINATION = 54.8693 RA_OF_ASC_NODE = 211.5378 ARG_OF_PERICENTER = 53.5986 MEAN_ANOMALY = 121.372 EPHEMERIS_TYPE = 0 CLASSIFICATION_TYPE = U NORAD_CAT_ID = 27663 ELEMENT_SET_NO = 999 REV_AT_EPOCH = 17304 BSTAR = 0 MEAN_MOTION_DOT = -.10000E-6 MEAN_MOTION_DDOT = 0 CCSDS_OMM_VERS = 2.0 CREATION_DATE = ORIGINATOR = OBJECT_NAME = GPS BIIR-11 (PRN 19) OBJECT_ID = 2004-009A CENTER_NAME = EARTH REF_FRAME = TEME TIME_SYSTEM = UTC MEAN_ELEMENT_THEORY = SGP/SGP4 EPOCH = 2026-09-10T21:31:57.660096 MEAN_MOTION = 2.00573795 ECCENTRICITY = .0117973 INCLINATION = 54.7639 RA_OF_ASC_NODE = 272.2167 ARG_OF_PERICENTER = 176.3888 MEAN_ANOMALY = 2.1213 EPHEMERIS_TYPE = 0 CLASSIFICATION_TYPE = U NORAD_CAT_ID = 28190 ELEMENT_SET_NO = 999 REV_AT_EPOCH = 16466 BSTAR = 0 MEAN_MOTION_DOT = -.11000E-6 MEAN_MOTION_DDOT = 0 CCSDS_OMM_VERS = 2.0 CREATION_DATE = ORIGINATOR = OBJECT_NAME = GPS BIIR-13 (PRN 02) OBJECT_ID = 2004-045A CENTER_NAME = EARTH REF_FRAME = TEME TIME_SYSTEM = UTC MEAN_ELEMENT_THEORY = SGP/SGP4 EPOCH = 2026-09-11T03:25:59.480256 MEAN_MOTION = 2.00559594 ECCENTRICITY = .0172011 INCLINATION = 55.0798 RA_OF_ASC_NODE = 321.4298 ARG_OF_PERICENTER = 318.4975 MEAN_ANOMALY = 101.9612 EPHEMERIS_TYPE = 0 CLASSIFICATION_TYPE = U NORAD_CAT_ID = 28474 ELEMENT_SET_NO = 999 REV_AT_EPOCH = 16015 BSTAR = 0 MEAN_MOTION_DOT = -.79000E-6 MEAN_MOTION_DDOT = 0 CCSDS_OMM_VERS = 2.0 CREATION_DATE = ORIGINATOR = OBJECT_NAME = GPS BIIRM-1 (PRN 17) OBJECT_ID = 2005-038A CENTER_NAME = EARTH REF_FRAME = TEME TIME_SYSTEM = UTC MEAN_ELEMENT_THEORY = SGP/SGP4 EPOCH = 2026-09-11T16:30:33.697728 MEAN_MOTION = 2.00559724 ECCENTRICITY = .01287558 INCLINATION = 54.8134 RA_OF_ASC_NODE = 269.679 ARG_OF_PERICENTER = 297.4628 MEAN_ANOMALY = 121.8822 EPHEMERIS_TYPE = 0 CLASSIFICATION_TYPE = U NORAD_CAT_ID = 28874 ELEMENT_SET_NO = 999 REV_AT_EPOCH = 15357 BSTAR = 0 MEAN_MOTION_DOT = -.15000E-6 MEAN_MOTION_DDOT = 0 CCSDS_OMM_VERS = 2.0 CREATION_DATE = ORIGINATOR = OBJECT_NAME = GPS BIIRM-2 (PRN 31) OBJECT_ID = 2006-042A CENTER_NAME = EARTH REF_FRAME = TEME TIME_SYSTEM = UTC MEAN_ELEMENT_THEORY = SGP/SGP4 EPOCH = 2026-09-11T11:59:38.749056 MEAN_MOTION = 2.00565341 ECCENTRICITY = .01087827 INCLINATION = 54.7152 RA_OF_ASC_NODE = 147.9105 ARG_OF_PERICENTER = 57.052 MEAN_ANOMALY = 126.5252 EPHEMERIS_TYPE = 0 CLASSIFICATION_TYPE = U NORAD_CAT_ID = 29486 ELEMENT_SET_NO = 999 REV_AT_EPOCH = 14612 BSTAR = 0 MEAN_MOTION_DOT = .13000E-6 MEAN_MOTION_DDOT = 0 CCSDS_OMM_VERS = 2.0 CREATION_DATE = ORIGINATOR = OBJECT_NAME = GPS BIIRM-3 (PRN 12) OBJECT_ID = 2006-052A CENTER_NAME = EARTH REF_FRAME = TEME TIME_SYSTEM = UTC MEAN_ELEMENT_THEORY = SGP/SGP4 EPOCH = 2026-09-12T04:08:01.008960 MEAN_MOTION = 2.00562877 ECCENTRICITY = .00854041 INCLINATION = 54.924 RA_OF_ASC_NODE = 210.5606 ARG_OF_PERICENTER = 91.135 MEAN_ANOMALY = 269.8072 EPHEMERIS_TYPE = 0 CLASSIFICATION_TYPE = U NORAD_CAT_ID = 29601 ELEMENT_SET_NO = 999 REV_AT_EPOCH = 14515 BSTAR = 0 MEAN_MOTION_DOT = -.50000E-7 MEAN_MOTION_DDOT = 0 CCSDS_OMM_VERS = 2.0 CREATION_DATE = ORIGINATOR = OBJECT_NAME = GPS BIIRM-4 (PRN 15) OBJECT_ID = 2007-047A CENTER_NAME = EARTH REF_FRAME = TEME TIME_SYSTEM = UTC MEAN_ELEMENT_THEORY = SGP/SGP4 EPOCH = 2026-09-11T23:33:51.141888 MEAN_MOTION = 2.00551515 ECCENTRICITY = .0169011 INCLINATION = 54.1635 RA_OF_ASC_NODE = 76.4901 ARG_OF_PERICENTER = 89.4051 MEAN_ANOMALY = 272.5828 EPHEMERIS_TYPE = 0 CLASSIFICATION_TYPE = U NORAD_CAT_ID = 32260 ELEMENT_SET_NO = 999 REV_AT_EPOCH = 13855 BSTAR = 0 MEAN_MOTION_DOT = -.14000E-6 MEAN_MOTION_DDOT = 0 CCSDS_OMM_VERS = 2.0 CREATION_DATE = ORIGINATOR = OBJECT_NAME = GPS BIIRM-5 (PRN 29) OBJECT_ID = 2007-062A CENTER_NAME = EARTH REF_FRAME = TEME TIME_SYSTEM = UTC MEAN_ELEMENT_THEORY = SGP/SGP4 EPOCH = 2026-09-12T07:24:22.568256 MEAN_MOTION = 2.00564843 ECCENTRICITY = .0036015 INCLINATION = 54.9678 RA_OF_ASC_NODE = 270.643 ARG_OF_PERICENTER = 170.083 MEAN_ANOMALY = 195.912 EPHEMERIS_TYPE = 0 CLASSIFICATION_TYPE = U NORAD_CAT_ID = 32384 ELEMENT_SET_NO = 999 REV_AT_EPOCH = 13726 BSTAR = 0 MEAN_MOTION_DOT = -.18000E-6 MEAN_MOTION_DDOT = 0 CCSDS_OMM_VERS = 2.0 CREATION_DATE = ORIGINATOR = OBJECT_NAME = GPS BIIRM-6 (PRN 07) OBJECT_ID = 2008-012A CENTER_NAME = EARTH REF_FRAME = TEME TIME_SYSTEM = UTC MEAN_ELEMENT_THEORY = SGP/SGP4 EPOCH = 2026-09-11T21:21:33.786432 MEAN_MOTION = 2.00552428 ECCENTRICITY = .0211407 INCLINATION = 54.5035 RA_OF_ASC_NODE = 146.4598 ARG_OF_PERICENTER = 248.537 MEAN_ANOMALY = 109.2661 EPHEMERIS_TYPE = 0 CLASSIFICATION_TYPE = U NORAD_CAT_ID = 32711 ELEMENT_SET_NO = 999 REV_AT_EPOCH = 13549 BSTAR = 0 MEAN_MOTION_DOT = .14000E-6 MEAN_MOTION_DDOT = 0 CCSDS_OMM_VERS = 2.0 CREATION_DATE = ORIGINATOR = OBJECT_NAME = GPS BIIRM-8 (PRN 05) OBJECT_ID = 2009-043A CENTER_NAME = EARTH REF_FRAME = TEME TIME_SYSTEM = UTC MEAN_ELEMENT_THEORY = SGP/SGP4 EPOCH = 2026-09-11T09:28:09.647904 MEAN_MOTION = 2.00577039 ECCENTRICITY = .00515989 INCLINATION = 56.2613 RA_OF_ASC_NODE = 24.0728 ARG_OF_PERICENTER = 86.0301 MEAN_ANOMALY = 286.2006 EPHEMERIS_TYPE = 0 CLASSIFICATION_TYPE = U NORAD_CAT_ID = 35752 ELEMENT_SET_NO = 999 REV_AT_EPOCH = 12509 BSTAR = 0 MEAN_MOTION_DOT = -.96000E-6 MEAN_MOTION_DDOT = 0 CCSDS_OMM_VERS = 2.0 CREATION_DATE = ORIGINATOR = OBJECT_NAME = GPS BIIF-1 (PRN 25) OBJECT_ID = 2010-022A CENTER_NAME = EARTH REF_FRAME = TEME TIME_SYSTEM = UTC MEAN_ELEMENT_THEORY = SGP/SGP4 EPOCH = 2026-09-11T00:00:00.000000 MEAN_MOTION = 2.00566725 ECCENTRICITY = .0128905 INCLINATION = 54.2612 RA_OF_ASC_NODE = 205.108 ARG_OF_PERICENTER = 66.3945 MEAN_ANOMALY = 140.7715 EPHEMERIS_TYPE = 0 CLASSIFICATION_TYPE = U NORAD_CAT_ID = 36585 ELEMENT_SET_NO = 999 REV_AT_EPOCH = 11931 BSTAR = 0 MEAN_MOTION_DOT = -.16000E-6 MEAN_MOTION_DDOT = 0 CCSDS_OMM_VERS = 2.0 CREATION_DATE = ORIGINATOR = OBJECT_NAME = GPS BIIF-3 (PRN 24) OBJECT_ID = 2012-053A CENTER_NAME = EARTH REF_FRAME = TEME TIME_SYSTEM = UTC MEAN_ELEMENT_THEORY = SGP/SGP4 EPOCH = 2026-09-11T01:42:27.551808 MEAN_MOTION = 2.00556923 ECCENTRICITY = .01854514 INCLINATION = 53.5962 RA_OF_ASC_NODE = 140.0783 ARG_OF_PERICENTER = 67.333 MEAN_ANOMALY = 294.6954 EPHEMERIS_TYPE = 0 CLASSIFICATION_TYPE = U NORAD_CAT_ID = 38833 ELEMENT_SET_NO = 999 REV_AT_EPOCH = 10116 BSTAR = 0 MEAN_MOTION_DOT = .14000E-6 MEAN_MOTION_DDOT = 0 CCSDS_OMM_VERS = 2.0 CREATION_DATE = ORIGINATOR = OBJECT_NAME = GPS BIIF-4 (PRN 27) OBJECT_ID = 2013-023A CENTER_NAME = EARTH REF_FRAME = TEME TIME_SYSTEM = UTC MEAN_ELEMENT_THEORY = SGP/SGP4 EPOCH = 2026-09-10T22:31:43.991040 MEAN_MOTION = 2.00563471 ECCENTRICITY = .0142242 INCLINATION = 54.4436 RA_OF_ASC_NODE = 265.4738 ARG_OF_PERICENTER = 51.142 MEAN_ANOMALY = 310.1467 EPHEMERIS_TYPE = 0 CLASSIFICATION_TYPE = U NORAD_CAT_ID = 39166 ELEMENT_SET_NO = 999 REV_AT_EPOCH = 9760 BSTAR = 0 MEAN_MOTION_DOT = -.80000E-7 MEAN_MOTION_DDOT = 0 CCSDS_OMM_VERS = 2.0 CREATION_DATE = ORIGINATOR = OBJECT_NAME = GPS BIIF-5 (PRN 30) OBJECT_ID = 2014-008A CENTER_NAME = EARTH REF_FRAME = TEME TIME_SYSTEM = UTC MEAN_ELEMENT_THEORY = SGP/SGP4 EPOCH = 2026-09-11T22:30:05.178816 MEAN_MOTION = 2.00565427 ECCENTRICITY = .00835894 INCLINATION = 53.6623 RA_OF_ASC_NODE = 145.7793 ARG_OF_PERICENTER = 231.5683 MEAN_ANOMALY = 127.7499 EPHEMERIS_TYPE = 0 CLASSIFICATION_TYPE = U NORAD_CAT_ID = 39533 ELEMENT_SET_NO = 999 REV_AT_EPOCH = 9142 BSTAR = 0 MEAN_MOTION_DOT = .13000E-6 MEAN_MOTION_DDOT = 0 CCSDS_OMM_VERS = 2.0 CREATION_DATE = ORIGINATOR = OBJECT_NAME = GPS BIIF-6 (PRN 06) OBJECT_ID = 2014-026A CENTER_NAME = EARTH REF_FRAME = TEME TIME_SYSTEM = UTC MEAN_ELEMENT_THEORY = SGP/SGP4 EPOCH = 2026-09-12T05:11:38.456448 MEAN_MOTION = 2.00554703 ECCENTRICITY = .00392931 INCLINATION = 56.4493 RA_OF_ASC_NODE = 328.1268 ARG_OF_PERICENTER = 324.1701 MEAN_ANOMALY = 35.6287 EPHEMERIS_TYPE = 0 CLASSIFICATION_TYPE = U NORAD_CAT_ID = 39741 ELEMENT_SET_NO = 999 REV_AT_EPOCH = 9028 BSTAR = 0 MEAN_MOTION_DOT = -.90000E-6 MEAN_MOTION_DDOT = 0 CCSDS_OMM_VERS = 2.0 CREATION_DATE = ORIGINATOR = OBJECT_NAME = GPS BIIF-7 (PRN 09) OBJECT_ID = 2014-045A CENTER_NAME = EARTH REF_FRAME = TEME TIME_SYSTEM = UTC MEAN_ELEMENT_THEORY = SGP/SGP4 EPOCH = 2026-09-11T19:22:48.412128 MEAN_MOTION = 2.00564033 ECCENTRICITY = .00363455 INCLINATION = 55.4149 RA_OF_ASC_NODE = 85.0144 ARG_OF_PERICENTER = 119.86 MEAN_ANOMALY = 240.566 EPHEMERIS_TYPE = 0 CLASSIFICATION_TYPE = U NORAD_CAT_ID = 40105 ELEMENT_SET_NO = 999 REV_AT_EPOCH = 8781 BSTAR = 0 MEAN_MOTION_DOT = .30000E-7 MEAN_MOTION_DDOT = 0 CCSDS_OMM_VERS = 2.0 CREATION_DATE = ORIGINATOR = OBJECT_NAME = GPS BIIF-8 (PRN 03) OBJECT_ID = 2014-068A CENTER_NAME = EARTH REF_FRAME = TEME TIME_SYSTEM = UTC MEAN_ELEMENT_THEORY = SGP/SGP4 EPOCH = 2026-09-11T16:16:45.761088 MEAN_MOTION = 2.00556705 ECCENTRICITY = .00670688 INCLINATION = 57.0446 RA_OF_ASC_NODE = 27.6301 ARG_OF_PERICENTER = 73.7719 MEAN_ANOMALY = 286.9591 EPHEMERIS_TYPE = 0 CLASSIFICATION_TYPE = U NORAD_CAT_ID = 40294 ELEMENT_SET_NO = 999 REV_AT_EPOCH = 8694 BSTAR = 0 MEAN_MOTION_DOT = -.91000E-6 MEAN_MOTION_DDOT = 0 CCSDS_OMM_VERS = 2.0 CREATION_DATE = ORIGINATOR = OBJECT_NAME = GPS BIIF-9 (PRN 26) OBJECT_ID = 2015-013A CENTER_NAME = EARTH REF_FRAME = TEME TIME_SYSTEM = UTC MEAN_ELEMENT_THEORY = SGP/SGP4 EPOCH = 2026-09-11T07:33:56.458656 MEAN_MOTION = 2.00570877 ECCENTRICITY = .01127711 INCLINATION = 53.158 RA_OF_ASC_NODE = 200.6179 ARG_OF_PERICENTER = 41.0484 MEAN_ANOMALY = 319.7596 EPHEMERIS_TYPE = 0 CLASSIFICATION_TYPE = U NORAD_CAT_ID = 40534 ELEMENT_SET_NO = 999 REV_AT_EPOCH = 8355 BSTAR = 0 MEAN_MOTION_DOT = -.15000E-6 MEAN_MOTION_DDOT = 0 CCSDS_OMM_VERS = 2.0 CREATION_DATE = ORIGINATOR = OBJECT_NAME = GPS BIIF-10 (PRN 08) OBJECT_ID = 2015-033A CENTER_NAME = EARTH REF_FRAME = TEME TIME_SYSTEM = UTC MEAN_ELEMENT_THEORY = SGP/SGP4 EPOCH = 2026-09-10T23:31:43.849632 MEAN_MOTION = 2.00551728 ECCENTRICITY = .01170888 INCLINATION = 53.9223 RA_OF_ASC_NODE = 263.5429 ARG_OF_PERICENTER = 30.5092 MEAN_ANOMALY = 330.1897 EPHEMERIS_TYPE = 0 CLASSIFICATION_TYPE = U NORAD_CAT_ID = 40730 ELEMENT_SET_NO = 999 REV_AT_EPOCH = 8171 BSTAR = 0 MEAN_MOTION_DOT = -.90000E-7 MEAN_MOTION_DDOT = 0 CCSDS_OMM_VERS = 2.0 CREATION_DATE = ORIGINATOR = OBJECT_NAME = GPS BIIF-11 (PRN 10) OBJECT_ID = 2015-062A CENTER_NAME = EARTH REF_FRAME = TEME TIME_SYSTEM = UTC MEAN_ELEMENT_THEORY = SGP/SGP4 EPOCH = 2026-09-12T00:42:05.699232 MEAN_MOTION = 2.00566941 ECCENTRICITY = .01158209 INCLINATION = 57.0156 RA_OF_ASC_NODE = 27.4729 ARG_OF_PERICENTER = 231.0497 MEAN_ANOMALY = 127.9112 EPHEMERIS_TYPE = 0 CLASSIFICATION_TYPE = U NORAD_CAT_ID = 41019 ELEMENT_SET_NO = 999 REV_AT_EPOCH = 7957 BSTAR = 0 MEAN_MOTION_DOT = -.92000E-6 MEAN_MOTION_DDOT = 0 CCSDS_OMM_VERS = 2.0 CREATION_DATE = ORIGINATOR = OBJECT_NAME = GPS BIIF-12 (PRN 32) OBJECT_ID = 2016-007A CENTER_NAME = EARTH REF_FRAME = TEME TIME_SYSTEM = UTC MEAN_ELEMENT_THEORY = SGP/SGP4 EPOCH = 2026-09-11T14:52:06.377664 MEAN_MOTION = 2.0057275 ECCENTRICITY = .00974933 INCLINATION = 55.5828 RA_OF_ASC_NODE = 86.0329 ARG_OF_PERICENTER = 247.2191 MEAN_ANOMALY = 111.8125 EPHEMERIS_TYPE = 0 CLASSIFICATION_TYPE = U NORAD_CAT_ID = 41328 ELEMENT_SET_NO = 999 REV_AT_EPOCH = 7757 BSTAR = 0 MEAN_MOTION_DOT = .70000E-7 MEAN_MOTION_DDOT = 0 CCSDS_OMM_VERS = 2.0 CREATION_DATE = ORIGINATOR = OBJECT_NAME = GPS BIII-1 (PRN 04) OBJECT_ID = 2018-109A CENTER_NAME = EARTH REF_FRAME = TEME TIME_SYSTEM = UTC MEAN_ELEMENT_THEORY = SGP/SGP4 EPOCH = 2026-09-12T00:11:47.723136 MEAN_MOTION = 2.00565073 ECCENTRICITY = .00399894 INCLINATION = 55.7397 RA_OF_ASC_NODE = 88.7611 ARG_OF_PERICENTER = 196.158 MEAN_ANOMALY = 336.6894 EPHEMERIS_TYPE = 0 CLASSIFICATION_TYPE = U NORAD_CAT_ID = 43873 ELEMENT_SET_NO = 999 REV_AT_EPOCH = 5681 BSTAR = 0 MEAN_MOTION_DOT = .70000E-7 MEAN_MOTION_DDOT = 0 CCSDS_OMM_VERS = 2.0 CREATION_DATE = ORIGINATOR = OBJECT_NAME = GPS BIII-2 (PRN 18) OBJECT_ID = 2019-056A CENTER_NAME = EARTH REF_FRAME = TEME TIME_SYSTEM = UTC MEAN_ELEMENT_THEORY = SGP/SGP4 EPOCH = 2026-09-10T09:48:58.382784 MEAN_MOTION = 2.00571097 ECCENTRICITY = .0065766 INCLINATION = 55.5893 RA_OF_ASC_NODE = 327.7525 ARG_OF_PERICENTER = 199.8938 MEAN_ANOMALY = 163.841 EPHEMERIS_TYPE = 0 CLASSIFICATION_TYPE = U NORAD_CAT_ID = 44506 ELEMENT_SET_NO = 999 REV_AT_EPOCH = 5178 BSTAR = 0 MEAN_MOTION_DOT = -.85000E-6 MEAN_MOTION_DDOT = 0 CCSDS_OMM_VERS = 2.0 CREATION_DATE = ORIGINATOR = OBJECT_NAME = GPS BIII-3 (PRN 23) OBJECT_ID = 2020-041A CENTER_NAME = EARTH REF_FRAME = TEME TIME_SYSTEM = UTC MEAN_ELEMENT_THEORY = SGP/SGP4 EPOCH = 2026-09-12T04:54:28.876896 MEAN_MOTION = 2.0056608 ECCENTRICITY = .0067432 INCLINATION = 56.7252 RA_OF_ASC_NODE = 25.574 ARG_OF_PERICENTER = 205.404 MEAN_ANOMALY = 308.9873 EPHEMERIS_TYPE = 0 CLASSIFICATION_TYPE = U NORAD_CAT_ID = 45854 ELEMENT_SET_NO = 999 REV_AT_EPOCH = 4578 BSTAR = 0 MEAN_MOTION_DOT = -.95000E-6 MEAN_MOTION_DDOT = 0 CCSDS_OMM_VERS = 2.0 CREATION_DATE = ORIGINATOR = OBJECT_NAME = GPS BIII-4 (PRN 14) OBJECT_ID = 2020-078A CENTER_NAME = EARTH REF_FRAME = TEME TIME_SYSTEM = UTC MEAN_ELEMENT_THEORY = SGP/SGP4 EPOCH = 2026-09-11T12:24:33.881184 MEAN_MOTION = 2.00565053 ECCENTRICITY = .00760655 INCLINATION = 53.9683 RA_OF_ASC_NODE = 207.2798 ARG_OF_PERICENTER = 208.4421 MEAN_ANOMALY = 149.1755 EPHEMERIS_TYPE = 0 CLASSIFICATION_TYPE = U NORAD_CAT_ID = 46826 ELEMENT_SET_NO = 999 REV_AT_EPOCH = 4323 BSTAR = 0 MEAN_MOTION_DOT = -.12000E-6 MEAN_MOTION_DDOT = 0 CCSDS_OMM_VERS = 2.0 CREATION_DATE = ORIGINATOR = OBJECT_NAME = GPS BIII-5 (PRN 11) OBJECT_ID = 2021-054A CENTER_NAME = EARTH REF_FRAME = TEME TIME_SYSTEM = UTC MEAN_ELEMENT_THEORY = SGP/SGP4 EPOCH = 2026-09-11T06:14:48.999840 MEAN_MOTION = 2.00563701 ECCENTRICITY = .00284399 INCLINATION = 55.1268 RA_OF_ASC_NODE = 328.9967 ARG_OF_PERICENTER = 230.5018 MEAN_ANOMALY = 127.7457 EPHEMERIS_TYPE = 0 CLASSIFICATION_TYPE = U NORAD_CAT_ID = 48859 ELEMENT_SET_NO = 999 REV_AT_EPOCH = 3847 BSTAR = 0 MEAN_MOTION_DOT = -.90000E-6 MEAN_MOTION_DDOT = 0 CCSDS_OMM_VERS = 2.0 CREATION_DATE = ORIGINATOR = OBJECT_NAME = GPS BIII-6 (PRN 28) OBJECT_ID = 2023-009A CENTER_NAME = EARTH REF_FRAME = TEME TIME_SYSTEM = UTC MEAN_ELEMENT_THEORY = SGP/SGP4 EPOCH = 2026-09-11T11:00:38.553120 MEAN_MOTION = 2.00565475 ECCENTRICITY = .00055413 INCLINATION = 55.1273 RA_OF_ASC_NODE = 145.1261 ARG_OF_PERICENTER = 333.0185 MEAN_ANOMALY = 207.9019 EPHEMERIS_TYPE = 0 CLASSIFICATION_TYPE = U NORAD_CAT_ID = 55268 ELEMENT_SET_NO = 999 REV_AT_EPOCH = 2697 BSTAR = 0 MEAN_MOTION_DOT = .15000E-6 MEAN_MOTION_DDOT = 0 CCSDS_OMM_VERS = 2.0 CREATION_DATE = ORIGINATOR = OBJECT_NAME = GPS BIII-7 (PRN 01) OBJECT_ID = 2024-242A CENTER_NAME = EARTH REF_FRAME = TEME TIME_SYSTEM = UTC MEAN_ELEMENT_THEORY = SGP/SGP4 EPOCH = 2026-09-09T04:39:03.588192 MEAN_MOTION = 2.00573456 ECCENTRICITY = .00191759 INCLINATION = 54.8068 RA_OF_ASC_NODE = 330.773 ARG_OF_PERICENTER = 1.5951 MEAN_ANOMALY = 67.0727 EPHEMERIS_TYPE = 0 CLASSIFICATION_TYPE = U NORAD_CAT_ID = 62339 ELEMENT_SET_NO = 999 REV_AT_EPOCH = 1294 BSTAR = 0 MEAN_MOTION_DOT = -.88000E-6 MEAN_MOTION_DDOT = 0 CCSDS_OMM_VERS = 2.0 CREATION_DATE = ORIGINATOR = OBJECT_NAME = GPS BIII-8 (PRN 21) OBJECT_ID = 2025-116A CENTER_NAME = EARTH REF_FRAME = TEME TIME_SYSTEM = UTC MEAN_ELEMENT_THEORY = SGP/SGP4 EPOCH = 2026-09-11T14:00:16.256736 MEAN_MOTION = 2.00569574 ECCENTRICITY = .00089637 INCLINATION = 55.2912 RA_OF_ASC_NODE = 27.6605 ARG_OF_PERICENTER = 334.7276 MEAN_ANOMALY = 202.3499 EPHEMERIS_TYPE = 0 CLASSIFICATION_TYPE = U NORAD_CAT_ID = 64202 ELEMENT_SET_NO = 999 REV_AT_EPOCH = 960 BSTAR = 0 MEAN_MOTION_DOT = -.93000E-6 MEAN_MOTION_DDOT = 0 CCSDS_OMM_VERS = 2.0 CREATION_DATE = ORIGINATOR = OBJECT_NAME = GPS BIII-9 (PRN 20) OBJECT_ID = 2026-017A CENTER_NAME = EARTH REF_FRAME = TEME TIME_SYSTEM = UTC MEAN_ELEMENT_THEORY = SGP/SGP4 EPOCH = 2026-09-11T22:44:12.094080 MEAN_MOTION = 2.00568964 ECCENTRICITY = .00207414 INCLINATION = 55.1491 RA_OF_ASC_NODE = 85.2737 ARG_OF_PERICENTER = 263.1983 MEAN_ANOMALY = 96.6286 EPHEMERIS_TYPE = 0 CLASSIFICATION_TYPE = U NORAD_CAT_ID = 67588 ELEMENT_SET_NO = 999 REV_AT_EPOCH = 43335 BSTAR = 0 MEAN_MOTION_DOT = .20000E-7 MEAN_MOTION_DDOT = 0 CCSDS_OMM_VERS = 2.0 CREATION_DATE = ORIGINATOR = OBJECT_NAME = GPS BIII-10 (PRN 13) OBJECT_ID = 2026-087A CENTER_NAME = EARTH REF_FRAME = TEME TIME_SYSTEM = UTC MEAN_ELEMENT_THEORY = SGP/SGP4 EPOCH = 2026-09-11T09:34:24.508128 MEAN_MOTION = 2.00577427 ECCENTRICITY = .00213243 INCLINATION = 54.9553 RA_OF_ASC_NODE = 204.381 ARG_OF_PERICENTER = 102.991 MEAN_ANOMALY = 67.7109 EPHEMERIS_TYPE = 0 CLASSIFICATION_TYPE = U NORAD_CAT_ID = 68791 ELEMENT_SET_NO = 999 REV_AT_EPOCH = 256 BSTAR = 0 MEAN_MOTION_DOT = -.12000E-6 MEAN_MOTION_DDOT = 0